This is the latest recevied weather packets stored in our database for station/object KI5RKU-09. If no packets are shown the sender has not sent any weather packets the latest 10 day(s).
| Time | Temp. | Humidity | Pressure | Rain* | Wind** | Luminosity | Snow |
|---|---|---|---|---|---|---|---|
| 1777170027 | 26.67° C | 70% | 1006.4 hPa | 0 mm | - | 0 W/m² | - |
| 1777169430 | 26.67° C | 70% | 1005.8 hPa | 0 mm | - | 0 W/m² | - |
| 1777168528 | 27.22° C | 69% | 1006.2 hPa | 0 mm | - | 0 W/m² | - |
| 1777167954 | 27.22° C | 68% | 1006.4 hPa | 0 mm | - | 0 W/m² | - |
| 1777167329 | 27.22° C | 68% | 1006 hPa | 0 mm | - | 0 W/m² | - |
| 1777166145 | 27.78° C | 67% | 1005.7 hPa | 0 mm | - | 0 W/m² | - |
| 1777164340 | 27.78° C | 66% | 1005.5 hPa | 0 mm | - | 0 W/m² | - |
| 1777163443 | 27.78° C | 66% | 1005.6 hPa | 0 mm | - | 0 W/m² | - |
| 1777161031 | 28.33° C | 64% | 1005.4 hPa | 0 mm | - | 0 W/m² | - |
| 1777160429 | 28.33° C | 63% | 1005.6 hPa | 0 mm | - | 0 W/m² | - |
| 1777159528 | 28.33° C | 62% | 1005.3 hPa | 0 mm | - | 11 W/m² | - |
| 1777158951 | 28.89° C | 61% | 1005 hPa | 0 mm | - | 21 W/m² | - |
| 1777158043 | 28.89° C | 62% | 1004.9 hPa | 0 mm | - | 63 W/m² | - |
| 1777157143 | 28.89° C | 62% | 1004.7 hPa | 0 mm | - | 102 W/m² | - |
| 1777155346 | 29.44° C | 62% | 1005.4 hPa | 0 mm | - | 120 W/m² | - |
| 1777154445 | 28.89° C | 64% | 1005.6 hPa | 0 mm | - | 118 W/m² | - |
| 1777153544 | 29.44° C | 63% | 1005.7 hPa | 0 mm | - | 83 W/m² | - |
| 1777152928 | 29.44° C | 63% | 1005.6 hPa | 0 mm | - | 95 W/m² | - |
| 1777152642 | 29.44° C | 63% | 1005.8 hPa | 0 mm | - | 100 W/m² | - |
| 1777147238 | 30° C | 63% | 1006.4 hPa | 0 mm | - | 369 W/m² | - |
| 1777146028 | 29.44° C | 64% | 1006.7 hPa | 0 mm | - | 181 W/m² | - |
| 1777145727 | 29.44° C | 63% | 1006.8 hPa | 0 mm | - | 171 W/m² | - |
| 1777145444 | 30° C | 63% | 1006.8 hPa | 0 mm | - | 151 W/m² | - |
| 1777142432 | 29.44° C | 64% | 1007.3 hPa | 0 mm | - | 146 W/m² | - |
| 1777142130 | 28.89° C | 65% | 1007.4 hPa | 0 mm | - | 135 W/m² | - |
* Rain latest hour (hover to see other rain measurements)
** Current wind speed in m/s (hover to see current wind gust speed)